Location: Doughton Park
(36.4224°N, 81.1835°W)
Time: 03:27:51
(UTC-05:00)

Amateur Radio Satellites - All Passes

Search period start: 01 March 2015 02:57
Search period end: 02 March 2015 02:57
Location: Doughton Park, 36.4224°N, 81.1835°W

Satellite Date Start Highest point End Downlink Frequencies (MHz)
Time Altitude Azimuth
KKS-1 01 Mar 03:02:02 03:06:06 33° 263° (W) 03:10:10 437.445
JUGNU 01 Mar 03:08:11 03:10:39 13° 170° (S) 03:13:11 437.505
STARS 01 Mar 03:12:52 03:17:03 39° 262° (W) 03:21:12 437.465
HORYU 2 01 Mar 03:21:43 03:25:41 32° 97° (E) 03:29:42 437.375
RS-15 01 Mar 03:23:56 03:30:49 17° 340° (NNW) 03:37:30 29.354- 29.394
SO-50 01 Mar 03:24:28 03:28:13 23° 312° (NW) 03:31:58 436.795
JAS-2 01 Mar 03:25:50 03:30:24 18° 89° (E) 03:35:33 435.910
AO-7 01 Mar 03:36:02 03:42:54 29° 95° (E) 03:49:58 29.400- 29.500
Gurwin Techsat 1B 01 Mar 03:47:16 03:52:09 37° 289° (WNW) 03:56:58 435.225
MOZHAYETS 4 01 Mar 03:58:59 04:03:13 40° 73° (ENE) 04:07:29
BEESAT 3 01 Mar 04:03:44 04:07:04 23° 248° (WSW) 04:10:17 437.485
AIST 2 01 Mar 04:12:55 04:17:08 64° 243° (WSW) 04:21:15 435.215
M-CUBED/EXP-1 PRIME 01 Mar 04:22:20 04:25:18 31° 257° (WSW) 04:28:19 437.505
AUBIESAT-1 01 Mar 04:25:55 04:28:55 32° 258° (WSW) 04:31:58 437.475
BEESAT 2 01 Mar 04:27:48 04:30:20 15° 250° (WSW) 04:32:40 435.950
ITAMSAT 1 01 Mar 04:28:56 04:30:56 12° 297° (WNW) 04:32:36 435.822/435.867
YUBILEINY 01 Mar 04:51:47 05:00:07 47° 270° (W) 05:08:19 435.215
SRMSAT 01 Mar 04:54:12 04:56:56 13° 172° (S) 04:59:44 437.500
JUGNU 01 Mar 04:55:28 04:58:54 16° 181° (S) 05:02:20 437.505
HORYU 2 01 Mar 04:58:50 05:02:11 21° 291° (WNW) 05:05:25 437.375
PCSat 01 Mar 05:01:55 05:03:40 12° 42° (NE) 05:05:41 145.827
JAS-2 01 Mar 05:08:41 05:16:09 83° 284° (WNW) 05:24:01 435.910
STRAND 1 01 Mar 05:15:09 05:17:37 14° 64° (ENE) 05:20:21 437.568
AO-7 01 Mar 05:28:03 05:36:07 56° 292° (WNW) 05:44:04 29.400- 29.500
MOZHAYETS 4 01 Mar 05:37:39 05:40:40 17° 268° (W) 05:43:30
RS-15 01 Mar 05:43:31 05:49:37 16° 16° (NNE) 05:56:10 29.354- 29.394
PRISM 01 Mar 05:47:51 05:51:48 46° 74° (ENE) 05:55:48 437.425
CUBESAT XI-V 01 Mar 05:52:18 05:56:47 48° 74° (ENE) 06:01:20 437.345
Cubesat XI-IV 01 Mar 05:59:27 06:04:00 28° 95° (E) 06:08:38 437.490
CUTE-I 01 Mar 06:08:47 06:13:38 35° 97° (E) 06:18:30 437.470
SRMSAT 01 Mar 06:41:56 06:45:21 16° 182° (S) 06:48:46 437.500
PCSat 01 Mar 06:42:39 06:48:06 78° 62° (ENE) 06:53:31 145.827
JUGNU 01 Mar 06:44:53 06:47:10 12° 190° (S) 06:49:22 437.505
STRAND 1 01 Mar 06:51:15 06:56:20 66° 259° (WSW) 07:01:29 437.568
JAS-2 01 Mar 06:56:07 07:00:24 16° 298° (WNW) 07:04:22 435.910
AIST 1 01 Mar 07:04:43 07:08:34 32° 91° (E) 07:12:30
AO-7 01 Mar 07:25:50 07:27:19 10° 311° (NW) 07:28:12 29.400- 29.500
PRISM 01 Mar 07:25:54 07:27:37 12° 269° (W) 07:29:08 437.425
CUBESAT XI-V 01 Mar 07:31:54 07:34:34 14° 270° (W) 07:37:02 437.345
Cubesat XI-IV 01 Mar 07:39:22 07:44:07 32° 291° (WNW) 07:48:47 437.490
CUTE-I 01 Mar 07:49:07 07:53:35 27° 292° (WNW) 07:57:57 437.470
RS-15 01 Mar 07:55:41 08:06:20 43° 47° (NE) 08:17:33 29.354- 29.394
DOVE 4 01 Mar 08:18:00 08:18:28 10° 88° (E) 08:19:16 437.250
CANX-2 01 Mar 08:25:02 08:28:18 22° 94° (E) 08:31:40 2200.000
SEEDS 01 Mar 08:25:08 08:27:44 16° 92° (E) 08:30:31 437.485
PCSat 01 Mar 08:28:58 08:30:56 12° 256° (WSW) 08:32:32 145.827
SRMSAT 01 Mar 08:31:51 08:33:46 11° 191° (SSW) 08:35:36 437.500
O/OREOS (USA 219) 01 Mar 08:31:53 08:32:33 10° 99° (E) 08:33:33 437.305
HO-68 01 Mar 08:39:24 08:46:02 40° 98° (E) 08:52:44 435.675
AIST 1 01 Mar 08:43:23 08:46:23 17° 288° (WNW) 08:49:15
CUTE 1.7 + AOD 2 01 Mar 08:43:28 08:47:17 32° 97° (E) 08:51:09 437.475
BRITE-PL 01 Mar 08:56:02 09:00:38 79° 100° (E) 09:04:54 437.365/2234.400
GONETS M04 01 Mar 09:03:21 09:11:46 51° 77° (ENE) 09:20:17
GOMX 1 01 Mar 09:09:37 09:14:00 72° 101° (E) 09:18:10 467.674
CUBEBUG 2 01 Mar 09:10:09 09:11:34 12° 90° (E) 09:13:14 437.445
UNISAT 6 01 Mar 09:10:21 09:12:36 14° 68° (ENE) 09:15:02 437.425
Oscar 11 01 Mar 09:14:07 09:17:16 20° 93° (E) 09:20:33 145.826/435.025
DELFI C3 01 Mar 09:17:18 09:19:50 16° 92° (E) 09:22:30 145.870
ISS 01 Mar 09:17:41 09:20:52 59° 136° (SE) 09:24:03 145.825
AAUSAT CUBESAT 2 01 Mar 09:33:27 09:37:39 79° 101° (ESE) 09:41:51 437.432
COMPASS 1 01 Mar 09:34:40 09:38:53 86° 283° (WNW) 09:43:06 437.405
TIGRISAT 01 Mar 09:34:47 09:38:26 26° 71° (ENE) 09:42:04 435.000
DX 1 01 Mar 09:35:54 09:38:31 16° 92° (E) 09:41:18 434.975-435.025
ANTELSAT 01 Mar 09:46:59 09:51:01 36° 73° (ENE) 09:55:03 437.575/2403.000
QB50P1 01 Mar 09:49:22 09:52:31 21° 70° (ENE) 09:55:47 145.935-145.965
QB50P2 01 Mar 09:52:24 09:55:44 23° 70° (ENE) 09:59:10 145.880/145.840
DOVE 4 01 Mar 09:52:36 09:56:46 51° 286° (WNW) 10:00:47 437.250
FUNcube-1 01 Mar 09:54:54 09:58:26 27° 96° (E) 10:02:01 145.935
ZACube-1 01 Mar 09:55:29 09:59:03 28° 96° (E) 10:02:41 437.345
SEEDS 01 Mar 09:59:51 10:03:43 35° 287° (WNW) 10:07:33 437.485
CANX-2 01 Mar 10:00:38 10:04:14 27° 288° (WNW) 10:07:47 2200.000
UKube-1 01 Mar 10:06:33 10:10:31 34° 97° (E) 10:14:29 .
O/OREOS (USA 219) 01 Mar 10:07:00 10:11:30 61° 292° (WNW) 10:16:02 437.305
RS-15 01 Mar 10:08:01 10:19:12 56° 248° (WSW) 10:30:43 29.354- 29.394
BUGSAT 1 01 Mar 10:08:09 10:11:36 25° 71° (ENE) 10:15:09 437.445
DUCHIFAT 1 01 Mar 10:08:26 10:12:16 33° 72° (ENE) 10:16:09 145.980
UWE-3 01 Mar 10:10:30 10:14:34 54° 99° (E) 10:18:40 435.000/436.395/437.385
HUMSAT D 01 Mar 10:12:14 10:15:25 22° 94° (E) 10:18:41 437.325/437.525
CINEMA 3 01 Mar 10:12:52 10:17:00 58° 285° (WNW) 10:21:03 145.822/145.860
SO-50 01 Mar 10:17:26 10:21:09 21° 47° (NE) 10:24:57 436.795
CUTE 1.7 + AOD 2 01 Mar 10:20:02 10:23:02 18° 290° (WNW) 10:25:54 437.475
POLYITAN 1 01 Mar 10:26:17 10:30:29 57° 75° (ENE) 10:34:43 437.675
50 SAT 01 Mar 10:26:38 10:29:42 22° 95° (E) 10:32:50 437.505
HO-68 01 Mar 10:27:14 10:33:41 36° 294° (WNW) 10:40:00 435.675
POPSAT HIP 1 01 Mar 10:27:39 10:31:52 58° 75° (ENE) 10:36:05 437.405
CUBEBUG 2 01 Mar 10:44:38 10:48:37 45° 286° (WNW) 10:52:35 437.445
UNISAT 6 01 Mar 10:44:48 10:49:06 46° 261° (W) 10:53:18 437.425
Oscar 11 01 Mar 10:49:43 10:53:31 30° 288° (WNW) 10:57:15 145.826/435.025
NANOSAT C BR1 01 Mar 10:51:25 10:55:42 73° 258° (WSW) 11:00:00 145.865
DELFI C3 01 Mar 10:51:29 10:55:10 32° 287° (WNW) 10:58:49 145.870
ISS 01 Mar 10:55:24 10:57:33 16° 333° (NNW) 10:59:42 145.825
GONETS M04 01 Mar 11:00:51 11:08:18 31° 274° (W) 11:15:33
DANDE 01 Mar 11:02:06 11:03:21 13° 72° (ENE) 11:04:41 436.750
AISAT 01 Mar 11:06:22 11:10:49 72° 101° (E) 11:15:14 437.250
DX 1 01 Mar 11:10:54 11:14:58 38° 288° (WNW) 11:18:59 434.975-435.025
TIGRISAT 01 Mar 11:11:30 11:15:09 24° 265° (W) 11:18:41 435.000
CUBEBUG 1 01 Mar 11:15:50 11:19:54 36° 97° (E) 11:23:57 437.445
VELOX 1 01 Mar 11:16:41 11:21:10 89° 272° (W) 11:25:35 145.980
QB50P1 01 Mar 11:24:29 11:28:16 29° 264° (W) 11:32:00 145.935-145.965
ANTELSAT 01 Mar 11:25:00 11:27:59 17° 267° (W) 11:30:46 437.575/2403.000
ESTCUBE 1 01 Mar 11:26:07 11:30:35 54° 100° (E) 11:35:03 437.505/2401.250
QB50P2 01 Mar 11:27:54 11:31:34 26° 265° (W) 11:35:10 145.880/145.840
FUNcube-1 01 Mar 11:31:33 11:34:40 20° 290° (WNW) 11:37:41 145.935
ZACube-1 01 Mar 11:32:15 11:35:19 20° 290° (WNW) 11:38:17 437.345
CUSAT 1 01 Mar 11:40:03 11:42:39 79° 261° (W) 11:45:19 437.405
UKube-1 01 Mar 11:43:24 11:46:27 18° 292° (WNW) 11:49:22 .
BUGSAT 1 01 Mar 11:43:32 11:47:03 24° 265° (W) 11:50:30 437.445
DUCHIFAT 1 01 Mar 11:45:14 11:48:15 18° 267° (W) 11:51:05 145.980
HUMSAT D 01 Mar 11:47:49 11:51:11 24° 289° (WNW) 11:54:29 437.325/437.525
UWE-3 01 Mar 11:49:34 11:50:44 11° 293° (WNW) 11:51:39 435.000/436.395/437.385
SPROUT 01 Mar 11:54:45 11:58:10 23° 95° (E) 12:01:38 437.525
SO-50 01 Mar 11:57:14 12:01:59 48° 245° (WSW) 12:06:41 436.795
50 SAT 01 Mar 12:01:30 12:04:40 23° 289° (WNW) 12:07:45 437.505
TISAT 1 01 Mar 12:04:15 12:07:49 26° 96° (E) 12:11:23 437.305
POLYITAN 1 01 Mar 12:06:01 12:06:52 10° 271° (W) 12:07:24 437.675
POPSAT HIP 1 01 Mar 12:07:40 12:08:12 10° 271° (W) 12:08:26 437.405
ITAMSAT 1 01 Mar 12:27:41 12:28:30 10° 62° (ENE) 12:29:41 435.822/435.867
Oscar 19 01 Mar 12:28:43 12:33:16 34° 71° (ENE) 12:37:54 437.125/150
BEESAT 01 Mar 12:45:38 12:46:51 11° 89° (E) 12:48:25 436.000
CUBEBUG 1 01 Mar 12:52:59 12:56:02 18° 292° (WNW) 12:58:55 437.445
ESTCUBE 1 01 Mar 13:04:44 13:07:04 14° 294° (WNW) 13:09:10 437.505/2401.250
ITUPSAT 1 01 Mar 13:10:01 13:13:37 21° 93° (E) 13:17:21 437.325
Gurwin Techsat 1B 01 Mar 13:26:28 13:30:59 30° 70° (ENE) 13:35:38 435.225
SPROUT 01 Mar 13:30:39 13:34:14 25° 289° (WNW) 13:37:43 437.525
TISAT 1 01 Mar 13:40:13 13:43:31 22° 290° (WNW) 13:46:42 437.305
ITAMSAT 1 01 Mar 14:02:09 14:07:22 88° 253° (WSW) 14:12:38 435.822/435.867
Oscar 19 01 Mar 14:08:27 14:12:42 25° 266° (W) 14:16:49 437.125/150
SWISSCUBE 01 Mar 14:11:31 14:16:21 74° 283° (WNW) 14:21:07 437.505
HORYU 2 01 Mar 14:18:17 14:21:40 23° 70° (ENE) 14:25:10 437.375
BEESAT 01 Mar 14:20:28 14:25:15 65° 285° (WNW) 14:29:59 436.000
AO-7 01 Mar 14:32:25 14:39:33 34° 62° (ENE) 14:46:50 29.400- 29.500
ITUPSAT 1 01 Mar 14:47:14 14:51:38 35° 289° (WNW) 14:55:57 437.325
KKS-1 01 Mar 14:55:20 14:59:42 55° 101° (E) 15:04:03 437.445
STARS 01 Mar 15:05:08 15:09:20 44° 99° (E) 15:13:31 437.465
Gurwin Techsat 1B 01 Mar 15:06:18 15:10:57 30° 265° (W) 15:15:32 435.225
JAS-2 01 Mar 15:19:47 15:24:23 30° 67° (ENE) 15:29:30 435.910
ISS 01 Mar 15:47:36 15:50:23 25° 32° (NNE) 15:53:10 145.825
YUBILEINY 01 Mar 15:52:50 16:00:49 43° 89° (E) 16:08:59 435.215
HORYU 2 01 Mar 15:54:21 15:58:14 29° 264° (W) 16:02:03 437.375
MOZHAYETS 4 01 Mar 15:58:50 16:00:18 12° 89° (E) 16:02:05
M-CUBED/EXP-1 PRIME 01 Mar 16:05:36 16:08:45 20° 100° (E) 16:12:10 437.505
AUBIESAT-1 01 Mar 16:08:50 16:11:55 19° 99° (E) 16:15:16 437.475
AO-7 01 Mar 16:24:00 16:32:05 51° 259° (W) 16:40:08 29.400- 29.500
KKS-1 01 Mar 16:33:56 16:35:56 13° 294° (WNW) 16:37:42 437.445
BEESAT 2 01 Mar 16:42:24 16:44:32 14° 110° (ESE) 16:46:52 435.950
STARS 01 Mar 16:42:56 16:45:29 15° 293° (WNW) 16:47:51 437.465
VERMONT LUNAR 01 Mar 16:44:02 16:45:55 14° 144° (SE) 16:47:54 437.305
JAS-2 01 Mar 17:04:44 17:09:29 31° 266° (W) 17:14:35 435.910
Cubesat XI-IV 01 Mar 17:18:55 17:23:47 37° 71° (ENE) 17:28:44 437.490
ISS 01 Mar 17:23:57 17:26:48 28° 228° (SW) 17:29:37 145.825
CUTE-I 01 Mar 17:28:05 17:33:08 45° 72° (ENE) 17:38:16 437.470
MOZHAYETS 4 01 Mar 17:33:25 17:38:00 58° 285° (WNW) 17:42:33
M-CUBED/EXP-1 PRIME 01 Mar 17:39:50 17:43:42 34° 291° (WNW) 17:47:48 437.505
AUBIESAT-1 01 Mar 17:42:54 17:46:50 36° 291° (WNW) 17:50:57 437.475
YUBILEINY 01 Mar 17:49:47 17:57:46 37° 287° (WNW) 18:05:39 435.215
CUBESAT XI-V 01 Mar 17:53:05 17:55:42 15° 90° (E) 17:58:31 437.345
BEESAT 3 01 Mar 17:54:10 17:58:14 69° 301° (WNW) 18:02:22 437.485
AIST 2 01 Mar 18:08:28 18:12:32 50° 116° (ESE) 18:16:42 435.215
PHONESAT 2.4 01 Mar 18:14:51 18:18:11 34° 150° (SSE) 18:21:32 2401.200-2431.200
BEESAT 2 01 Mar 18:18:27 18:22:23 43° 304° (NW) 18:26:23 435.950
VERMONT LUNAR 01 Mar 18:20:00 18:23:29 73° 157° (SSE) 18:26:59 437.305
O/OREOS (USA 219) 01 Mar 18:41:39 18:44:18 15° 56° (NE) 18:47:07 437.305
AIST 1 01 Mar 18:51:29 18:55:56 89° 122° (ESE) 19:00:19
Cubesat XI-IV 01 Mar 18:59:38 19:04:00 24° 266° (W) 19:08:17 437.490
STRAND 1 01 Mar 19:04:25 19:09:28 52° 100° (E) 19:14:27 437.568
HO-68 01 Mar 19:06:27 19:11:45 24° 62° (ENE) 19:17:17 435.675
PRISM 01 Mar 19:08:12 19:12:26 72° 284° (WNW) 19:16:38 437.425
CUTE-I 01 Mar 19:09:30 19:13:28 20° 268° (W) 19:17:17 437.470
CANX-2 01 Mar 19:17:30 19:19:06 12° 67° (ENE) 19:20:55 2200.000
DOVE 4 01 Mar 19:20:38 19:22:27 12° 66° (ENE) 19:24:31 437.250
CUBESAT XI-V 01 Mar 19:28:56 19:33:28 47° 286° (WNW) 19:37:56 437.345
CUTE 1.7 + AOD 2 01 Mar 19:35:01 19:37:47 18° 70° (ENE) 19:40:43 437.475
PCSat 01 Mar 19:41:35 19:44:04 14° 105° (ESE) 19:46:53 145.827
AIST 2 01 Mar 19:48:43 19:51:29 16° 314° (NW) 19:54:08 435.215
PHONESAT 2.4 01 Mar 19:52:57 19:56:34 62° 345° (NNW) 20:00:11 2401.200-2431.200
VERMONT LUNAR 01 Mar 19:58:11 20:01:33 43° 353° (N) 20:04:54 437.305
BRITE-PL 01 Mar 20:02:44 20:08:24 72° 76° (ENE) 20:13:54 437.365/2234.400
Oscar 11 01 Mar 20:08:13 20:09:52 12° 67° (ENE) 20:11:44 145.826/435.025
GOMX 1 01 Mar 20:13:58 20:19:20 62° 76° (ENE) 20:24:30 467.674
O/OREOS (USA 219) 01 Mar 20:19:39 20:24:05 49° 254° (WSW) 20:28:28 437.305
AAUSAT CUBESAT 2 01 Mar 20:22:13 20:26:00 36° 73° (ENE) 20:29:50 437.432
COMPASS 1 01 Mar 20:23:41 20:27:37 44° 74° (ENE) 20:31:36 437.405
DX 1 01 Mar 20:30:55 20:32:07 11° 65° (ENE) 20:33:34 434.975-435.025
STRAND 1 01 Mar 20:44:53 20:48:17 17° 294° (WNW) 20:51:27 437.568
SEEDS 01 Mar 20:49:06 20:53:15 70° 259° (W) 20:57:26 437.485
FUNcube-1 01 Mar 20:49:12 20:52:03 18° 70° (ENE) 20:55:01 145.935
ZACube-1 01 Mar 20:49:55 20:52:52 18° 70° (ENE) 20:55:55 437.345
CANX-2 01 Mar 20:50:34 20:54:40 50° 261° (W) 20:58:47 2200.000
HO-68 01 Mar 20:51:57 20:59:01 62° 258° (WSW) 21:06:05 435.675
DOVE 4 01 Mar 20:54:31 20:59:46 75° 260° (W) 21:04:46 437.250
UKube-1 01 Mar 20:59:39 21:02:59 23° 69° (ENE) 21:06:26 .
HUMSAT D 01 Mar 21:03:31 21:05:15 13° 68° (ENE) 21:07:11 437.325/437.525
UWE-3 01 Mar 21:05:20 21:09:21 34° 73° (ENE) 21:13:19 435.000/436.395/437.385
CUTE 1.7 + AOD 2 01 Mar 21:09:43 21:13:32 33° 263° (W) 21:17:19 437.475
CINEMA 3 01 Mar 21:11:23 21:16:16 89° 285° (WNW) 21:20:56 145.822/145.860
50 SAT 01 Mar 21:13:41 21:14:14 10° 67° (ENE) 21:15:00 437.505
PCSat 01 Mar 21:21:36 21:26:59 68° 299° (WNW) 21:32:24 145.827
PHONESAT 2.4 01 Mar 21:31:52 21:35:20 42° 2° (N) 21:38:48 2401.200-2431.200
VERMONT LUNAR 01 Mar 21:36:25 21:39:49 48° 10° (N) 21:43:12 437.305
DELFI C3 01 Mar 21:36:28 21:40:29 76° 258° (WSW) 21:44:32 145.870
CUBEBUG 2 01 Mar 21:39:52 21:44:27 78° 258° (WSW) 21:48:53 437.445
Oscar 11 01 Mar 21:41:28 21:45:39 52° 260° (W) 21:49:53 145.826/435.025
BRITE-PL 01 Mar 21:44:28 21:47:25 14° 271° (W) 21:49:59 437.365/2234.400
GOMX 1 01 Mar 21:54:46 21:57:51 15° 270° (W) 22:00:34 467.674
AAUSAT CUBESAT 2 01 Mar 21:59:22 22:01:50 15° 268° (W) 22:04:08 437.432
GONETS M04 01 Mar 22:00:49 22:09:19 64° 93° (E) 22:17:53
AISAT 01 Mar 22:01:48 22:06:06 47° 74° (ENE) 22:10:27 437.250
COMPASS 1 01 Mar 22:01:49 22:03:39 12° 270° (W) 22:05:15 437.405
DX 1 01 Mar 22:03:34 22:07:54 62° 259° (W) 22:12:17 434.975-435.025
CUBEBUG 1 01 Mar 22:10:04 22:13:32 23° 70° (ENE) 22:17:06 437.445
VELOX 1 01 Mar 22:11:45 22:16:09 59° 74° (ENE) 22:20:35 145.980
POLYITAN 1 01 Mar 22:17:03 22:18:08 11° 90° (E) 22:19:29 437.675
POPSAT HIP 1 01 Mar 22:18:05 22:19:14 11° 90° (E) 22:20:39 437.405
RS-15 01 Mar 22:18:10 22:26:53 30° 106° (ESE) 22:36:00 29.354- 29.394
ESTCUBE 1 01 Mar 22:23:30 22:27:36 36° 72° (ENE) 22:31:47 437.505/2401.250
FUNcube-1 01 Mar 22:24:07 22:28:12 35° 263° (W) 22:32:10 145.935
ZACube-1 01 Mar 22:25:00 22:29:03 34° 263° (W) 22:33:00 437.345
UKube-1 01 Mar 22:35:16 22:39:02 28° 264° (W) 22:42:45 .
HUMSAT D 01 Mar 22:36:36 22:40:41 48° 261° (W) 22:44:44 437.325/437.525
UNISAT 6 01 Mar 22:39:15 22:43:18 40° 98° (E) 22:47:25 437.425
NANOSAT C BR1 01 Mar 22:39:57 22:43:09 21° 94° (E) 22:46:26 145.865
UWE-3 01 Mar 22:42:46 22:46:00 19° 267° (W) 22:49:02 435.000/436.395/437.385
50 SAT 01 Mar 22:44:56 22:48:51 53° 260° (W) 22:52:46 437.505
SPROUT 01 Mar 22:47:49 22:50:04 14° 68° (ENE) 22:52:31 437.525
TISAT 1 01 Mar 22:55:17 22:57:47 16° 68° (ENE) 23:00:29 437.305
CUSAT 1 01 Mar 23:03:45 23:07:34 17° 94° (E) 23:11:09 437.405
TIGRISAT 01 Mar 23:04:43 23:09:00 81° 102° (ESE) 23:13:19 435.000
PHONESAT 2.4 01 Mar 23:10:25 23:14:03 81° 19° (NNE) 23:17:40 2401.200-2431.200
PCSat 01 Mar 23:10:39 23:11:33 10° 319° (NW) 23:12:09 145.827
QB50P1 01 Mar 23:11:48 23:15:56 52° 100° (E) 23:20:03 145.935-145.965
VERMONT LUNAR 01 Mar 23:14:23 23:17:47 52° 207° (SSW) 23:21:09 437.305
QB50P2 01 Mar 23:15:13 23:19:24 59° 100° (E) 23:23:34 145.880/145.840
ANTELSAT 01 Mar 23:17:43 23:22:00 68° 284° (WNW) 23:26:19 437.575/2403.000
BUGSAT 1 01 Mar 23:27:45 23:31:52 59° 100° (E) 23:35:54 437.445
DUCHIFAT 1 01 Mar 23:31:14 23:35:28 90° 29° (NNE) 23:39:40 145.980
AISAT 01 Mar 23:40:35 23:43:02 14° 269° (W) 23:45:16 437.250
CUBEBUG 1 01 Mar 23:45:57 23:49:49 28° 265° (W) 23:53:37 437.445
POLYITAN 1 01 Mar 23:50:20 23:54:27 51° 286° (WNW) 23:58:31 437.675
BEESAT 01 Mar 23:50:57 23:51:48 11° 64° (ENE) 23:52:57 436.000
POPSAT HIP 1 01 Mar 23:51:24 23:55:30 50° 286° (WNW) 23:59:34 437.405
VELOX 1 01 Mar 23:51:57 23:53:11 11° 271° (W) 23:54:08 145.980
GONETS M04 01 Mar 23:59:57 00:06:54 25° 292° (WNW) 00:13:33
ESTCUBE 1 02 Mar 00:01:28 00:04:39 18° 267° (W) 00:07:42 437.505/2401.250
DANDE 02 Mar 00:07:34 00:14:41 56° 97° (E) 00:20:11 436.750
ITUPSAT 1 02 Mar 00:15:00 00:18:18 20° 68° (ENE) 00:21:47 437.325
NANOSAT C BR1 02 Mar 00:15:26 00:19:02 27° 289° (WNW) 00:22:32 145.865
UNISAT 6 02 Mar 00:17:14 00:19:50 15° 292° (WNW) 00:22:17 437.425
SPROUT 02 Mar 00:21:40 00:25:49 45° 261° (W) 00:30:00 437.525
RS-15 02 Mar 00:27:42 00:38:33 66° 305° (NW) 00:49:31 29.354- 29.394
TISAT 1 02 Mar 00:29:17 00:33:19 39° 262° (W) 00:37:21 437.305
CUSAT 1 02 Mar 00:43:47 00:50:27 59° 279° (W) 00:55:30 437.405
Oscar 19 02 Mar 00:44:09 00:46:42 14° 90° (E) 00:49:32 437.125/150
PHONESAT 2.4 02 Mar 00:49:23 00:52:17 23° 213° (SSW) 00:55:08 2401.200-2431.200
QB50P1 02 Mar 00:49:45 00:51:25 12° 293° (WNW) 00:52:51 145.935-145.965
QB50P2 02 Mar 00:53:51 00:54:53 11° 294° (WNW) 00:55:39 145.880/145.840
BUGSAT 1 02 Mar 01:06:15 01:06:53 10° 294° (WNW) 01:07:17 437.445
SWISSCUBE 02 Mar 01:15:29 01:20:16 86° 257° (WSW) 01:25:06 437.505
BEESAT 02 Mar 01:24:20 01:29:05 76° 258° (WSW) 01:33:54 436.000
Gurwin Techsat 1B 02 Mar 01:46:25 01:49:03 14° 90° (E) 01:52:00 435.225
KKS-1 02 Mar 01:51:10 01:55:16 37° 72° (ENE) 01:59:25 437.445
ITUPSAT 1 02 Mar 01:51:29 01:55:58 39° 262° (W) 02:00:27 437.325
DANDE 02 Mar 01:53:02 01:58:05 20° 286° (WNW) 02:02:06 436.750
STARS 02 Mar 01:59:59 02:03:48 29° 71° (ENE) 02:07:40 437.465
YUBILEINY 02 Mar 02:07:14 02:12:38 18° 63° (ENE) 02:18:33 435.215
SO-50 02 Mar 02:09:00 02:13:34 80° 301° (WNW) 02:18:19 436.795
BEESAT 3 02 Mar 02:16:01 02:19:44 32° 53° (NE) 02:23:25 437.485
ITAMSAT 1 02 Mar 02:17:51 02:22:45 40° 98° (E) 02:27:39 435.822/435.867
Oscar 19 02 Mar 02:21:28 02:26:30 58° 286° (WNW) 02:31:31 437.125/150
AIST 2 02 Mar 02:33:31 02:36:23 18° 48° (NE) 02:39:19 435.215
BEESAT 2 02 Mar 02:40:19 02:44:22 49° 57° (ENE) 02:48:22 435.950
M-CUBED/EXP-1 PRIME 02 Mar 02:54:27 02:55:52 13° 64° (ENE) 02:57:28 437.505
